Meteo Giornale » Osservazioni meteo Svizzera » Ginevra-Cointrin

ore: 18:50 - Osservazioni Meteo Ginevra-Cointrin
Lat. 46° 15' N Lon. 6° 8' E Alt. 420 metri s.l.m.

sereno

25 °C

Sereno

Temp. 24 Ore

13 °C

25 °C

Nord-Est

9.3 Km/h

Dew point 12 °C

Umidità 44 %

Visibilità  10 Km

Il sole sorge alle ore 06:55

Il sole tramonta alle ore 20:15

Data e Ora Cielo e Fenomeni T °C DP °C Um. % Pres. hPa Vis. km Vento km/h
Oggi h: 18:50 sereno Sereno 25 12 44 1021 10 NE 9.3
Oggi h: 18:20 sereno Sereno 25 12 44 1021 10 N/NE 7.4
Oggi h: 17:50 sereno Sereno 25 11 41 1021 10 N 5.5
Oggi h: 17:20 sereno Sereno 25 10 38 1021 10 E 7.4
Oggi h: 16:50 sereno Sereno 25 10 38 1021 10 E 11.1
Oggi h: 16:20 sereno Sereno 25 12 44 1021 10 E 7.4
Oggi h: 15:50 sereno Sereno 25 11 41 1021 10 E/SE 9.3
Oggi h: 15:20 sereno Sereno 25 11 41 1021 10 E/NE 7.4
Oggi h: 14:50 sereno Sereno 24 11 43 1022 10 E 7.4
Oggi h: 14:20 sereno Sereno 25 10 38 1022 10 E 7.4
Oggi h: 13:50 sereno Sereno 24 10 41 1022 10 E 9.3
Oggi h: 13:20 sereno Sereno 23 12 49 1022 10 N 7.4
Oggi h: 12:50 sereno Sereno 23 12 49 1022 10 N 5.5
Oggi h: 12:20 sereno Sereno 22 13 56 1023 10 N 7.4
Oggi h: 11:50 sereno Sereno 21 12 56 1023 10 E 7.4
Oggi h: 11:20 sereno Sereno 21 13 60 1023 10 N 5.5
Oggi h: 10:50 sereno Sereno 21 13 60 1023 10 E 9.3
Oggi h: 10:20 sereno Sereno 20 11 56 1023 10 E 7.4
Oggi h: 09:50 sereno Sereno 19 12 63 1023 10 N 5.5
Oggi h: 09:20 sereno Sereno 18 12 67 1023 10 N 3.7
Oggi h: 08:50 sereno Sereno 18 12 67 1023 10 N 5.5
Oggi h: 08:20 sereno Sereno 16 12 77 1023 10 N 5.5
Oggi h: 07:50 sereno Sereno 14 11 82 1023 10 N 1.8
Oggi h: 07:20 sereno Sereno 13 11 87 1022 10 N 1.8
Oggi h: 06:50 sereno Sereno 13 11 87 1022 10 N 1.8
Oggi h: 06:20 sereno Sereno 13 11 87 1022 10 N 1.8
Oggi h: 05:50 sereno Sereno 13 11 87 1022 10 N 1.8
Oggi h: 05:20 sereno Sereno 13 11 87 1022 10 N 1.8
Oggi h: 04:50 sereno Sereno 14 11 82 1022 10 N 1.8
Oggi h: 04:20 sereno Sereno 14 11 82 1022 10 N 5.5
Oggi h: 03:50 sereno Sereno 14 11 82 1022 10 N 1.8
Oggi h: 03:20 sereno Sereno 15 11 76 1022 10 N 3.7
Oggi h: 02:50 sereno Sereno 16 11 72 1023 10 N 1.8
Oggi h: 02:20 sereno Sereno 16 11 72 1023 10 N 1.8
Oggi h: 01:50 sereno Sereno 16 11 72 1023 10 N 3.7
Oggi h: 01:20 sereno Sereno 16 11 72 1022 10 N 5.5
Oggi h: 00:50 poco_nuvoloso Poco Nuvoloso 17 11 67 1022 10 N 1.8
Oggi h: 00:20 sereno Sereno 18 11 63 1023 10 N 3.7
Ieri h: 23:50 sereno Sereno 17 11 67 1022 10 N 1.8
Ieri h: 23:20 sereno Sereno 18 11 63 1022 10 N 3.7
Ieri h: 22:50 sereno Sereno 20 11 56 1022 10 N 3.7
Ieri h: 22:20 sereno Sereno 20 11 56 1022 10 N 3.7
Ieri h: 21:50 sereno Sereno 22 10 46 1022 10 N 5.5
Ieri h: 21:20 sereno Sereno 22 10 46 1022 10 N 7.4
Ieri h: 20:50 sereno Sereno 22 10 46 1021 10 O/NO 7.4
Ieri h: 20:20 sereno Sereno 23 10 43 1021 10 N 5.5
Ieri h: 19:50 sereno Sereno 23 10 43 1021 10 N 5.5